Plattsburgh, NY

8:15 AM EST on November 21, 2019 (GMT -0500)
Plattsburgh International

Weather History for KPBG - October, 2019

Change the Weather History Date:

Monday, October 21, 2019

  Actual Average Record
Temperature  
Mean Temperature 46 °F 46 °F  
Max Temperature 60 °F 55 °F 80 °F (1979)
Min Temperature 31 °F 36 °F 23 °F (1972)
Degree Days  
Heating Degree Days 20 19  
Month to date heating degree days 330 334  
Since 1 July heating degree days 522 569  
Cooling Degree Days 0 0  
Month to date cooling degree days 0 0  
Year to date cooling degree days 406 345  
Moisture  
Dew Point 38 °F    
Average Humidity 89    
Maximum Humidity 100    
Minimum Humidity 53    
Precipitation  
Precipitation 0.00 in - 1.30 in (1976)
Month to date precipitation 3.07 0.00  
Year to date precipitation 24.69  
Sea Level Pressure  
Sea Level Pressure 30.11 in    
Wind  
Wind Speed 1 mph ()    
Max Wind Speed 8 mph    
Max Gust Speed 10 mph    
Visibility 8.0 miles    
Events      
T = Trace of Precipitation, MM = Missing Value Source: Averaged Metar Reports

Daily Weather History Graph

Daily Weather History Graph

Search for Another Location

Airport or City:

Astronomy

Oct. 21, 2019 Rise Set
Actual Time 7:16 AM EDT 5:59 PM EDT
Civil Twilight 6:46 AM EDT 6:29 PM EDT
Nautical Twilight 6:12 AM EDT 7:03 PM EDT
Astronomical Twilight 5:39 AM EDT 7:37 PM EDT
Moon No Moon Rise 2:41 PM EDT
Length of Visible Light 11h 42m
Length of Day
10h 43m
Waning Gibbous, 48% of the Moon is Illuminated
Oct 21
Waning Gibbous
Oct 27
New
Nov 4
First Quarter
Nov 12
Full
Nov 19
Last Quarter

Hourly Weather History & Observations

Time (EDT) Temp. Windchill Dew Point Humidity Pressure Visibility Wind Dir Wind Speed Gust Speed Precip Events Conditions
12:18 AM 37.0 °F - 36.0 °F 96% 30.03 in 2.0 mi Calm Calm - N/A   Clear
12:39 AM 36.0 °F - 35.1 °F 97% 30.04 in 4.0 mi Calm Calm - N/A   Clear
12:53 AM 37.0 °F - 36.0 °F 96% 30.05 in 10.0 mi Calm Calm - N/A   Clear
1:50 AM 35.6 °F - 35.6 °F 100% 30.05 in 2.0 mi Calm Calm - N/A   Clear
1:53 AM 36.0 °F 33.3 °F 35.1 °F 97% 30.06 in 4.0 mi SSW 3.5 mph - N/A   Clear
2:53 AM 36.0 °F - 35.1 °F 97% 30.07 in 10.0 mi Calm Calm - N/A   Clear
3:53 AM 35.1 °F - 33.1 °F 92% 30.07 in 3.0 mi Calm Calm - N/A   Clear
4:53 AM 33.1 °F - 32.0 °F 96% 30.10 in 9.0 mi Calm Calm - N/A   Clear
5:53 AM 33.1 °F - 32.0 °F 96% 30.12 in 8.0 mi Calm Calm - N/A   Clear
6:53 AM 33.1 °F - 32.0 °F 96% 30.14 in 10.0 mi Calm Calm - N/A   Clear
7:40 AM 32.0 °F - 32.0 °F 100% 30.13 in 3.0 mi Calm Calm - N/A   Clear
7:53 AM 33.1 °F - 32.0 °F 96% 30.14 in 8.0 mi Calm Calm - N/A   Clear
8:53 AM 39.9 °F - 37.9 °F 93% 30.15 in 10.0 mi Calm Calm - N/A   Clear
9:53 AM 48.0 °F - 43.0 °F 83% 30.16 in 10.0 mi Calm Calm - N/A   Clear
10:53 AM 52.0 °F - 45.0 °F 77% 30.17 in 10.0 mi Calm Calm - N/A   Clear
3:53 PM 60.1 °F - 43.0 °F 53% 30.12 in 10.0 mi NE 6.9 mph - N/A   Clear
4:53 PM 59.0 °F - 44.1 °F 58% 30.14 in 10.0 mi ENE 3.5 mph - N/A   Clear
5:53 PM 53.1 °F - 44.1 °F 71% 30.14 in 10.0 mi Calm Calm - N/A   Clear
6:53 PM 48.9 °F - 45.0 °F 86% 30.15 in 10.0 mi Calm Calm - N/A   Clear
7:53 PM 45.0 °F - 42.1 °F 90% 30.14 in 10.0 mi Calm Calm - N/A   Clear
8:53 PM 46.0 °F 44.8 °F 42.1 °F 86% 30.14 in 10.0 mi West 3.5 mph - N/A   Clear
9:53 PM 42.1 °F - 39.9 °F 92% 30.13 in 10.0 mi Calm Calm - N/A   Clear
10:53 PM 39.9 °F - 37.9 °F 93% 30.13 in 8.0 mi Calm Calm - N/A   Clear
11:53 PM 41.0 °F - 39.0 °F 93% 30.11 in 10.0 mi Calm Calm - N/A   Clear